QPF
0.00 0.00 0.00 0.00 0.00 0.01 0.01 0.01 0.01 0.01 0.01 0.01 0.02 0.03 0.03 0.02 0.04 0.06 0.05 0.05 0.02 0.02 0.05 0.05 0.03 0.02 0.02 0.01 0.00 0.00 0.00 0.00 0.00 0.00 0.01 0.01 0.01 0.01 0.01 0.01 0.01 0.01 0.01 0.01 0.01 0.01 0.01 0.01 0.01
0.00 0.00 0.00 0.00 0.00 0.01 0.02 0.02 0.01 0.01 0.01 0.02 0.02 0.03 0.03 0.02 0.02 0.04 0.05 0.05 0.04 0.03 0.08 0.06 0.03 0.03 0.01 0.01 0.01 0.01 0.01 0.01 0.00 0.00 0.00 0.00 0.01 0.01 0.01 0.01 0.01 0.01 0.01 0.01 0.02 0.01 0.01 0.01 0.01
0.00 0.00 0.00 0.00 0.00 0.01 0.01 0.01 0.02 0.02 0.02 0.02 0.03 0.04 0.05 0.04 0.02 0.03 0.04 0.05 0.04 0.07 0.15 0.07 0.03 0.03 0.02 0.02 0.01 0.01 0.01 0.01 0.01 0.01 0.00 0.00 0.01 0.01 0.01 0.01 0.01 0.01 0.01 0.01 0.01 0.01 0.01 0.01 0.01
0.00 0.01 0.01 0.00 0.00 0.00 0.01 0.01 0.02 0.02 0.02 0.02 0.03 0.05 0.05 0.04 0.03 0.04 0.03 0.03 0.03 0.07 0.12 0.08 0.03 0.02 0.02 0.03 0.02 0.02 0.01 0.01 0.01 0.02 0.01 0.01 0.01 0.01 0.01 0.01 0.01 0.01 0.01 0.02 0.02 0.02 0.02 0.02 0.02
0.00 0.00 0.00 0.00 0.00 0.00 0.00 0.01 0.02 0.03 0.03 0.03 0.04 0.04 0.05 0.07 0.05 0.04 0.03 0.02 0.02 0.04 0.07 0.07 0.05 0.02 0.02 0.02 0.02 0.01 0.01 0.01 0.01 0.01 0.02 0.02 0.01 0.02 0.02 0.01 0.01 0.01 0.01 0.02 0.03 0.03 0.03 0.02 0.02
0.00 0.00 0.00 0.00 0.00 0.00 0.01 0.01 0.01 0.02 0.03 0.04 0.04 0.04 0.08 0.08 0.08 0.06 0.04 0.02 0.02 0.03 0.05 0.06 0.05 0.04 0.02 0.01 0.01 0.01 0.01 0.01 0.01 0.01 0.02 0.02 0.03 0.03 0.03 0.02 0.02 0.03 0.03 0.03 0.02 0.03 0.03 0.03 0.03
0.00 0.00 0.00 0.00 0.00 0.00 0.00 0.01 0.01 0.03 0.04 0.04 0.04 0.06 0.10 0.12 0.07 0.04 0.04 0.02 0.02 0.02 0.04 0.05 0.05 0.05 0.04 0.02 0.02 0.02 0.01 0.01 0.02 0.02 0.02 0.02 0.03 0.04 0.04 0.05 0.06 0.05 0.04 0.03 0.02 0.03 0.03 0.03 0.03
0.00 0.00 0.00 0.00 0.00 0.00 0.01 0.01 0.02 0.04 0.03 0.03 0.04 0.04 0.06 0.08 0.04 0.04 0.03 0.03 0.02 0.04 0.05 0.03 0.04 0.04 0.03 0.02 0.02 0.02 0.02 0.02 0.04 0.04 0.04 0.04 0.04 0.04 0.04 0.04 0.05 0.06 0.05 0.05 0.05 0.04 0.04 0.03 0.02
0.00 0.01 0.00 0.00 0.00 0.00 0.00 0.01 0.01 0.01 0.01 0.02 0.03 0.03 0.03 0.03 0.03 0.06 0.07 0.05 0.04 0.04 0.03 0.02 0.03 0.03 0.03 0.03 0.03 0.03 0.03 0.04 0.04 0.04 0.04 0.04 0.03 0.04 0.04 0.04 0.05 0.06 0.08 0.09 0.08 0.07 0.06 0.05 0.03
0.00 0.01 0.01 0.00 0.00 0.00 0.00 0.02 0.02 0.02 0.01 0.02 0.02 0.03 0.02 0.02 0.04 0.06 0.11 0.07 0.06 0.03 0.03 0.03 0.03 0.05 0.07 0.06 0.04 0.04 0.04 0.04 0.05 0.05 0.05 0.04 0.03 0.02 0.02 0.03 0.07 0.08 0.09 0.10 0.09 0.09 0.08 0.07 0.05
0.00 0.00 0.01 0.01 0.01 0.01 0.00 0.01 0.01 0.02 0.02 0.02 0.02 0.02 0.01 0.02 0.05 0.06 0.07 0.05 0.05 0.04 0.04 0.05 0.07 0.10 0.10 0.07 0.05 0.04 0.04 0.05 0.05 0.05 0.05 0.03 0.02 0.02 0.02 0.02 0.03 0.06 0.08 0.07 0.07 0.08 0.08 0.06 0.06
0.00 0.00 0.00 0.01 0.01 0.03 0.03 0.01 0.01 0.02 0.03 0.03 0.02 0.01 0.02 0.03 0.06 0.09 0.07 0.05 0.04 0.04 0.04 0.06 0.08 0.14 0.20 0.15 0.10 0.06 0.05 0.06 0.05 0.04 0.05 0.05 0.04 0.03 0.02 0.02 0.02 0.04 0.05 0.05 0.05 0.06 0.06 0.07 0.05
0.00 0.00 0.01 0.01 0.02 0.06 0.05 0.03 0.03 0.02 0.03 0.03 0.04 0.03 0.02 0.03 0.05 0.08 0.07 0.05 0.04 0.04 0.04 0.04 0.07 0.11 0.17 0.17 0.10 0.05 0.04 0.05 0.05 0.06 0.06 0.05 0.05 0.03 0.02 0.02 0.03 0.03 0.04 0.04 0.04 0.04 0.04 0.05 0.06
0.00 0.00 0.01 0.01 0.01 0.06 0.07 0.03 0.03 0.04 0.04 0.05 0.08 0.06 0.04 0.04 0.05 0.05 0.04 0.04 0.04 0.04 0.05 0.05 0.04 0.05 0.09 0.11 0.09 0.05 0.03 0.03 0.04 0.04 0.04 0.03 0.03 0.03 0.03 0.04 0.04 0.04 0.04 0.05 0.06 0.05 0.05 0.03 0.04
0.00 0.00 0.01 0.01 0.01 0.02 0.03 0.04 0.04 0.05 0.07 0.07 0.09 0.09 0.06 0.05 0.08 0.07 0.05 0.05 0.05 0.05 0.06 0.07 0.07 0.05 0.06 0.08 0.07 0.05 0.04 0.04 0.03 0.04 0.04 0.03 0.03 0.03 0.04 0.05 0.06 0.06 0.06 0.06 0.05 0.04 0.04 0.03 0.02
0.00 0.00 0.01 0.02 0.02 0.03 0.03 0.04 0.06 0.05 0.06 0.08 0.07 0.08 0.06 0.05 0.07 0.08 0.08 0.07 0.07 0.08 0.09 0.08 0.07 0.07 0.06 0.05 0.04 0.04 0.05 0.05 0.05 0.06 0.05 0.03 0.02 0.02 0.02 0.03 0.03 0.04 0.06 0.07 0.07 0.06 0.04 0.03 0.02
0.00 0.00 0.01 0.02 0.02 0.03 0.03 0.07 0.09 0.07 0.06 0.05 0.04 0.05 0.05 0.05 0.05 0.06 0.08 0.08 0.09 0.09 0.09 0.08 0.06 0.07 0.07 0.06 0.05 0.06 0.06 0.06 0.06 0.06 0.05 0.03 0.02 0.02 0.02 0.02 0.02 0.03 0.04 0.06 0.06 0.05 0.04 0.03 0.02
0.00 0.00 0.01 0.02 0.03 0.03 0.03 0.09 0.14 0.09 0.07 0.04 0.02 0.03 0.03 0.05 0.05 0.06 0.08 0.08 0.08 0.06 0.06 0.06 0.06 0.05 0.06 0.06 0.04 0.06 0.07 0.05 0.05 0.05 0.04 0.04 0.04 0.02 0.02 0.03 0.03 0.03 0.04 0.05 0.06 0.06 0.05 0.03 0.03
0.00 0.01 0.01 0.02 0.03 0.03 0.04 0.07 0.12 0.10 0.07 0.03 0.03 0.03 0.04 0.06 0.06 0.07 0.07 0.07 0.06 0.04 0.04 0.05 0.05 0.06 0.05 0.05 0.04 0.05 0.07 0.05 0.04 0.04 0.05 0.04 0.05 0.04 0.03 0.03 0.03 0.04 0.03 0.04 0.04 0.04 0.04 0.04 0.04
0.00 0.00 0.00 0.02 0.04 0.04 0.03 0.04 0.11 0.11 0.07 0.04 0.04 0.04 0.05 0.07 0.09 0.10 0.09 0.07 0.05 0.04 0.03 0.03 0.04 0.05 0.05 0.05 0.05 0.05 0.06 0.05 0.04 0.05 0.06 0.05 0.04 0.04 0.04 0.04 0.04 0.04 0.04 0.04 0.03 0.04 0.04 0.04 0.04
0.00 0.00 0.00 0.00 0.03 0.05 0.03 0.04 0.06 0.06 0.08 0.04 0.03 0.04 0.05 0.08 0.09 0.11 0.11 0.09 0.07 0.05 0.05 0.05 0.06 0.05 0.04 0.04 0.05 0.05 0.04 0.03 0.04 0.05 0.04 0.03 0.02 0.02 0.05 0.07 0.06 0.05 0.05 0.05 0.04 0.04 0.04 0.04 0.03
0.00 0.00 0.00 0.00 0.01 0.02 0.03 0.04 0.05 0.04 0.07 0.04 0.02 0.03 0.07 0.10 0.09 0.08 0.09 0.09 0.06 0.05 0.05 0.05 0.05 0.05 0.05 0.06 0.06 0.04 0.03 0.02 0.03 0.03 0.03 0.02 0.02 0.03 0.04 0.05 0.06 0.06 0.06 0.06 0.06 0.06 0.05 0.05 0.05
0.00 0.00 0.00 0.00 0.00 0.01 0.01 0.02 0.02 0.02 0.02 0.02 0.02 0.05 0.08 0.07 0.05 0.05 0.06 0.06 0.05 0.05 0.05 0.05 0.04 0.04 0.04 0.05 0.06 0.03 0.02 0.02 0.02 0.02 0.04 0.02 0.02 0.03 0.03 0.05 0.07 0.06 0.05 0.05 0.05 0.05 0.04 0.04 0.05
0.00 0.00 0.00 0.00 0.00 0.00 0.01 0.00 0.01 0.01 0.01 0.01 0.02 0.02 0.02 0.03 0.04 0.04 0.04 0.04 0.03 0.04 0.05 0.05 0.04 0.04 0.04 0.04 0.04 0.03 0.03 0.02 0.02 0.03 0.05 0.04 0.03 0.04 0.05 0.05 0.04 0.05 0.06 0.06 0.05 0.04 0.06 0.08 0.07
0.00 0.01 0.00 0.00 0.00 0.00 0.00 0.01 0.02 0.02 0.02 0.02 0.01 0.01 0.01 0.03 0.06 0.06 0.05 0.04 0.03 0.03 0.04 0.04 0.05 0.05 0.04 0.05 0.05 0.05 0.04 0.03 0.03 0.07 0.06 0.04 0.04 0.04 0.02 0.02 0.02 0.03 0.04 0.05 0.05 0.05 0.06 0.10 0.12
0.00 0.01 0.01 0.00 0.00 0.00 0.01 0.02 0.04 0.02 0.02 0.02 0.02 0.02 0.02 0.02 0.04 0.06 0.06 0.05 0.04 0.03 0.04 0.04 0.05 0.06 0.05 0.06 0.06 0.05 0.05 0.04 0.05 0.08 0.06 0.04 0.03 0.03 0.02 0.03 0.02 0.02 0.03 0.04 0.05 0.04 0.04 0.06 0.08
0.00 0.00 0.00 0.00 0.00 0.01 0.01 0.02 0.02 0.02 0.02 0.01 0.02 0.02 0.03 0.04 0.03 0.04 0.05 0.05 0.04 0.05 0.05 0.06 0.07 0.06 0.05 0.05 0.05 0.05 0.05 0.04 0.07 0.08 0.07 0.04 0.04 0.03 0.03 0.03 0.02 0.02 0.02 0.03 0.04 0.03 0.03 0.04 0.04
0.00 0.00 0.00 0.00 0.00 0.01 0.01 0.02 0.02 0.03 0.01 0.00 0.01 0.01 0.03 0.05 0.04 0.04 0.05 0.06 0.06 0.06 0.07 0.07 0.06 0.06 0.05 0.05 0.04 0.04 0.03 0.04 0.06 0.05 0.04 0.04 0.03 0.03 0.03 0.03 0.02 0.02 0.03 0.03 0.03 0.03 0.03 0.03 0.04
0.00 0.00 0.00 0.00 0.00 0.00 0.01 0.03 0.02 0.02 0.02 0.01 0.01 0.01 0.02 0.02 0.03 0.04 0.05 0.08 0.09 0.08 0.07 0.06 0.05 0.05 0.04 0.04 0.03 0.04 0.03 0.04 0.04 0.03 0.02 0.02 0.02 0.02 0.03 0.02 0.02 0.02 0.02 0.02 0.02 0.02 0.03 0.02 0.03
0.00 0.00 0.00 0.00 0.00 0.00 0.01 0.02 0.02 0.01 0.01 0.01 0.01 0.01 0.02 0.03 0.03 0.04 0.04 0.04 0.05 0.04 0.03 0.02 0.03 0.03 0.03 0.03 0.04 0.06 0.05 0.05 0.03 0.02 0.02 0.01 0.01 0.02 0.03 0.03 0.02 0.01 0.01 0.01 0.01 0.01 0.01 0.01 0.02
MSLP
1008.46 1009.56 1010.85 1012.11 1013.14 1013.78 1013.96 1013.68 1013.04 1012.17 1011.28 1010.48 1009.89 1009.51 1009.32 1009.23 1009.16 1009.04 1008.84 1008.58 1008.32 1008.12 1008.04 1008.12 1008.34 1008.65 1009.00 1009.31 1009.57 1009.75 1009.88 1010.01 1010.19 1010.46 1010.83 1011.27 1011.75 1012.23 1012.66 1013.02 1013.30 1013.53 1013.73 1013.93 1014.14 1014.35 1014.55 1014.73 1014.86
1008.98 1010.29 1011.69 1012.94 1013.84 1014.26 1014.15 1013.56 1012.63 1011.54 1010.48 1009.62 1009.03 1008.71 1008.61 1008.64 1008.68 1008.65 1008.53 1008.34 1008.12 1007.97 1007.93 1008.05 1008.31 1008.68 1009.09 1009.48 1009.81 1010.07 1010.27 1010.45 1010.66 1010.93 1011.26 1011.64 1012.04 1012.43 1012.77 1013.06 1013.29 1013.49 1013.69 1013.90 1014.12 1014.34 1014.54 1014.70 1014.80
1009.66 1011.10 1012.51 1013.67 1014.38 1014.55 1014.15 1013.30 1012.14 1010.91 1009.79 1008.92 1008.39 1008.17 1008.18 1008.30 1008.41 1008.44 1008.36 1008.19 1007.99 1007.86 1007.85 1008.00 1008.32 1008.75 1009.22 1009.68 1010.08 1010.40 1010.66 1010.88 1011.10 1011.35 1011.64 1011.95 1012.27 1012.56 1012.82 1013.03 1013.22 1013.39 1013.58 1013.80 1014.04 1014.28 1014.49 1014.65 1014.74
1010.46 1011.93 1013.27 1014.26 1014.74 1014.64 1013.99 1012.93 1011.65 1010.36 1009.26 1008.47 1008.05 1007.93 1008.04 1008.23 1008.38 1008.42 1008.33 1008.15 1007.96 1007.83 1007.84 1008.02 1008.38 1008.85 1009.37 1009.87 1010.31 1010.67 1010.95 1011.19 1011.41 1011.64 1011.90 1012.16 1012.41 1012.64 1012.82 1012.98 1013.12 1013.28 1013.47 1013.69 1013.95 1014.21 1014.44 1014.61 1014.71
1011.29 1012.71 1013.89 1014.65 1014.87 1014.53 1013.68 1012.49 1011.17 1009.92 1008.92 1008.27 1007.98 1007.98 1008.16 1008.39 1008.54 1008.56 1008.44 1008.23 1008.02 1007.89 1007.91 1008.12 1008.50 1008.98 1009.52 1010.02 1010.46 1010.82 1011.10 1011.33 1011.55 1011.77 1012.00 1012.24 1012.46 1012.65 1012.80 1012.93 1013.05 1013.19 1013.38 1013.61 1013.87 1014.15 1014.40 1014.58 1014.70
1012.04 1013.31 1014.27 1014.78 1014.75 1014.19 1013.21 1011.99 1010.71 1009.58 1008.75 1008.27 1008.13 1008.24 1008.47 1008.70 1008.82 1008.79 1008.62 1008.37 1008.15 1008.02 1008.06 1008.28 1008.66 1009.14 1009.64 1010.11 1010.51 1010.82 1011.07 1011.27 1011.48 1011.70 1011.95 1012.19 1012.42 1012.62 1012.78 1012.90 1013.01 1013.15 1013.32 1013.55 1013.82 1014.10 1014.36 1014.56 1014.68
1012.57 1013.64 1014.34 1014.59 1014.33 1013.63 1012.60 1011.42 1010.27 1009.33 1008.70 1008.41 1008.41 1008.61 1008.86 1009.07 1009.13 1009.04 1008.82 1008.55 1008.32 1008.20 1008.25 1008.48 1008.84 1009.28 1009.72 1010.12 1010.44 1010.68 1010.87 1011.05 1011.25 1011.49 1011.76 1012.05 1012.32 1012.56 1012.74 1012.88 1013.00 1013.13 1013.30 1013.52 1013.77 1014.04 1014.29 1014.50 1014.63
1012.83 1013.65 1014.09 1014.10 1013.67 1012.89 1011.89 1010.83 1009.88 1009.16 1008.75 1008.64 1008.76 1009.01 1009.26 1009.41 1009.42 1009.26 1009.00 1008.72 1008.49 1008.40 1008.46 1008.69 1009.02 1009.40 1009.77 1010.06 1010.29 1010.44 1010.57 1010.72 1010.92 1011.19 1011.51 1011.85 1012.19 1012.48 1012.71 1012.87 1013.00 1013.13 1013.28 1013.47 1013.70 1013.94 1014.18 1014.37 1014.50
1012.79 1013.37 1013.58 1013.40 1012.88 1012.10 1011.20 1010.32 1009.59 1009.11 1008.91 1008.95 1009.15 1009.41 1009.62 1009.71 1009.65 1009.44 1009.15 1008.87 1008.67 1008.60 1008.68 1008.90 1009.19 1009.51 1009.78 1009.98 1010.10 1010.18 1010.26 1010.38 1010.58 1010.88 1011.25 1011.65 1012.04 1012.39 1012.66 1012.85 1012.99 1013.11 1013.24 1013.39 1013.59 1013.80 1014.00 1014.17 1014.28
1012.53 1012.90 1012.93 1012.64 1012.09 1011.39 1010.65 1009.99 1009.50 1009.25 1009.22 1009.36 1009.60 1009.83 1009.98 1009.99 1009.85 1009.60 1009.29 1009.02 1008.84 1008.80 1008.89 1009.10 1009.35 1009.60 1009.79 1009.90 1009.95 1009.96 1010.00 1010.10 1010.32 1010.63 1011.04 1011.48 1011.91 1012.29 1012.59 1012.80 1012.94 1013.05 1013.16 1013.29 1013.44 1013.61 1013.78 1013.92 1014.01
1012.18 1012.38 1012.30 1011.97 1011.49 1010.93 1010.39 1009.97 1009.71 1009.65 1009.74 1009.94 1010.16 1010.33 1010.38 1010.30 1010.09 1009.79 1009.47 1009.21 1009.05 1009.02 1009.11 1009.29 1009.49 1009.68 1009.80 1009.85 1009.84 1009.82 1009.85 1009.95 1010.17 1010.50 1010.92 1011.37 1011.81 1012.19 1012.50 1012.71 1012.85 1012.95 1013.05 1013.15 1013.28 1013.42 1013.55 1013.66 1013.72
1011.86 1011.95 1011.83 1011.55 1011.19 1010.83 1010.52 1010.33 1010.28 1010.36 1010.52 1010.71 1010.87 1010.94 1010.88 1010.70 1010.41 1010.07 1009.74 1009.47 1009.31 1009.27 1009.33 1009.46 1009.61 1009.74 1009.81 1009.82 1009.80 1009.79 1009.82 1009.94 1010.16 1010.49 1010.89 1011.32 1011.73 1012.09 1012.37 1012.58 1012.72 1012.82 1012.92 1013.02 1013.14 1013.26 1013.36 1013.44 1013.47
1011.67 1011.72 1011.64 1011.47 1011.29 1011.14 1011.07 1011.10 1011.20 1011.37 1011.55 1011.69 1011.74 1011.69 1011.51 1011.23 1010.87 1010.48 1010.12 1009.83 1009.64 1009.56 1009.56 1009.62 1009.70 1009.77 1009.81 1009.82 1009.81 1009.83 1009.90 1010.04 1010.27 1010.58 1010.94 1011.31 1011.67 1011.97 1012.22 1012.41 1012.55 1012.67 1012.79 1012.91 1013.03 1013.15 1013.24 1013.29 1013.29
1011.69 1011.75 1011.75 1011.74 1011.76 1011.84 1011.99 1012.19 1012.41 1012.61 1012.75 1012.80 1012.74 1012.56 1012.26 1011.88 1011.46 1011.02 1010.62 1010.29 1010.04 1009.88 1009.79 1009.75 1009.75 1009.76 1009.78 1009.80 1009.84 1009.91 1010.04 1010.22 1010.45 1010.73 1011.03 1011.32 1011.60 1011.84 1012.04 1012.21 1012.36 1012.51 1012.66 1012.82 1012.96 1013.09 1013.18 1013.21 1013.19
1011.88 1011.99 1012.11 1012.27 1012.50 1012.80 1013.13 1013.46 1013.75 1013.94 1014.01 1013.95 1013.76 1013.45 1013.06 1012.60 1012.13 1011.65 1011.21 1010.82 1010.48 1010.21 1010.00 1009.85 1009.75 1009.70 1009.70 1009.75 1009.85 1010.00 1010.18 1010.41 1010.65 1010.89 1011.12 1011.33 1011.51 1011.68 1011.83 1011.99 1012.15 1012.34 1012.53 1012.73 1012.92 1013.06 1013.14 1013.16 1013.10
1012.18 1012.36 1012.61 1012.95 1013.37 1013.85 1014.33 1014.75 1015.05 1015.20 1015.18 1015.01 1014.70 1014.29 1013.82 1013.32 1012.81 1012.31 1011.83 1011.38 1010.95 1010.55 1010.21 1009.92 1009.72 1009.61 1009.60 1009.68 1009.84 1010.06 1010.31 1010.58 1010.82 1011.03 1011.19 1011.31 1011.41 1011.50 1011.61 1011.75 1011.93 1012.15 1012.39 1012.63 1012.84 1013.00 1013.07 1013.07 1012.97
1012.51 1012.78 1013.16 1013.66 1014.25 1014.87 1015.44 1015.90 1016.19 1016.27 1016.16 1015.87 1015.47 1014.98 1014.47 1013.95 1013.44 1012.94 1012.43 1011.92 1011.40 1010.89 1010.41 1010.00 1009.69 1009.52 1009.49 1009.60 1009.81 1010.10 1010.42 1010.72 1010.96 1011.13 1011.23 1011.27 1011.29 1011.31 1011.38 1011.50 1011.70 1011.94 1012.22 1012.48 1012.71 1012.86 1012.92 1012.88 1012.75
1012.80 1013.16 1013.66 1014.31 1015.03 1015.76 1016.39 1016.85 1017.10 1017.10 1016.88 1016.50 1016.01 1015.48 1014.95 1014.44 1013.95 1013.47 1012.96 1012.41 1011.82 1011.22 1010.63 1010.11 1009.72 1009.49 1009.44 1009.56 1009.82 1010.15 1010.51 1010.83 1011.07 1011.21 1011.25 1011.23 1011.17 1011.14 1011.17 1011.27 1011.46 1011.71 1011.99 1012.26 1012.48 1012.62 1012.64 1012.56 1012.39
1013.01 1013.47 1014.10 1014.87 1015.70 1016.49 1017.15 1017.59 1017.77 1017.69 1017.37 1016.90 1016.35 1015.79 1015.27 1014.79 1014.34 1013.89 1013.40 1012.85 1012.22 1011.55 1010.89 1010.30 1009.84 1009.56 1009.50 1009.62 1009.89 1010.26 1010.63 1010.96 1011.18 1011.28 1011.27 1011.19 1011.09 1011.01 1010.99 1011.07 1011.24 1011.47 1011.73 1011.98 1012.17 1012.26 1012.25 1012.13 1011.92
1013.16 1013.73 1014.48 1015.36 1016.28 1017.12 1017.78 1018.18 1018.29 1018.12 1017.71 1017.16 1016.56 1015.98 1015.46 1015.02 1014.61 1014.21 1013.76 1013.23 1012.60 1011.91 1011.22 1010.59 1010.09 1009.79 1009.70 1009.81 1010.08 1010.44 1010.80 1011.11 1011.30 1011.36 1011.31 1011.19 1011.04 1010.92 1010.87 1010.91 1011.04 1011.24 1011.45 1011.65 1011.79 1011.83 1011.78 1011.63 1011.39
1013.31 1014.00 1014.88 1015.85 1016.84 1017.71 1018.36 1018.72 1018.76 1018.50 1018.01 1017.39 1016.73 1016.13 1015.61 1015.18 1014.82 1014.46 1014.06 1013.56 1012.97 1012.30 1011.62 1010.98 1010.48 1010.16 1010.05 1010.14 1010.38 1010.70 1011.02 1011.29 1011.43 1011.46 1011.37 1011.21 1011.03 1010.88 1010.80 1010.80 1010.89 1011.03 1011.18 1011.31 1011.39 1011.39 1011.30 1011.12 1010.88
1013.54 1014.35 1015.33 1016.40 1017.44 1018.34 1018.98 1019.30 1019.27 1018.93 1018.36 1017.67 1016.96 1016.32 1015.78 1015.35 1015.01 1014.68 1014.32 1013.87 1013.33 1012.71 1012.06 1011.46 1010.97 1010.65 1010.52 1010.57 1010.75 1011.01 1011.27 1011.47 1011.57 1011.55 1011.43 1011.25 1011.06 1010.89 1010.78 1010.75 1010.79 1010.87 1010.95 1011.02 1011.04 1010.99 1010.88 1010.70 1010.47
1013.89 1014.81 1015.89 1017.04 1018.13 1019.04 1019.67 1019.95 1019.87 1019.47 1018.83 1018.08 1017.31 1016.61 1016.03 1015.57 1015.21 1014.89 1014.56 1014.15 1013.66 1013.11 1012.52 1011.97 1011.51 1011.19 1011.03 1011.03 1011.15 1011.32 1011.50 1011.62 1011.66 1011.61 1011.47 1011.29 1011.10 1010.93 1010.81 1010.76 1010.75 1010.77 1010.80 1010.80 1010.77 1010.70 1010.57 1010.41 1010.22
1014.40 1015.41 1016.56 1017.75 1018.87 1019.79 1020.41 1020.66 1020.55 1020.10 1019.42 1018.61 1017.78 1017.02 1016.38 1015.87 1015.47 1015.12 1014.79 1014.40 1013.96 1013.46 1012.94 1012.43 1012.01 1011.69 1011.50 1011.44 1011.48 1011.56 1011.65 1011.70 1011.69 1011.60 1011.47 1011.30 1011.13 1010.98 1010.88 1010.81 1010.78 1010.76 1010.74 1010.69 1010.62 1010.53 1010.41 1010.28 1010.14
1015.07 1016.12 1017.30 1018.51 1019.62 1020.53 1021.13 1021.37 1021.24 1020.77 1020.06 1019.22 1018.34 1017.52 1016.81 1016.23 1015.77 1015.38 1015.01 1014.63 1014.21 1013.75 1013.27 1012.81 1012.40 1012.08 1011.86 1011.73 1011.68 1011.68 1011.68 1011.67 1011.62 1011.52 1011.40 1011.27 1011.15 1011.05 1010.97 1010.92 1010.88 1010.83 1010.78 1010.70 1010.60 1010.50 1010.39 1010.30 1010.21
1015.87 1016.91 1018.06 1019.24 1020.33 1021.20 1021.78 1022.00 1021.86 1021.40 1020.69 1019.83 1018.93 1018.07 1017.30 1016.65 1016.11 1015.65 1015.23 1014.82 1014.40 1013.95 1013.49 1013.05 1012.65 1012.31 1012.05 1011.86 1011.74 1011.65 1011.59 1011.53 1011.46 1011.38 1011.30 1011.23 1011.17 1011.13 1011.10 1011.08 1011.04 1010.99 1010.91 1010.81 1010.69 1010.58 1010.48 1010.41 1010.35
1016.75 1017.73 1018.81 1019.92 1020.93 1021.74 1022.28 1022.48 1022.35 1021.91 1021.23 1020.40 1019.50 1018.62 1017.81 1017.10 1016.48 1015.95 1015.46 1015.00 1014.55 1014.08 1013.62 1013.16 1012.75 1012.38 1012.07 1011.83 1011.64 1011.50 1011.39 1011.31 1011.25 1011.20 1011.19 1011.19 1011.21 1011.25 1011.28 1011.29 1011.28 1011.23 1011.13 1011.01 1010.88 1010.75 1010.64 1010.57 1010.53
1017.67 1018.55 1019.52 1020.51 1021.41 1022.14 1022.62 1022.80 1022.68 1022.27 1021.64 1020.86 1020.01 1019.14 1018.32 1017.56 1016.89 1016.28 1015.73 1015.20 1014.68 1014.17 1013.67 1013.18 1012.73 1012.32 1011.97 1011.67 1011.44 1011.26 1011.14 1011.06 1011.04 1011.05 1011.11 1011.20 1011.31 1011.42 1011.51 1011.57 1011.57 1011.52 1011.42 1011.28 1011.12 1010.96 1010.83 1010.73 1010.67
1018.59 1019.35 1020.20 1021.04 1021.81 1022.42 1022.83 1022.98 1022.87 1022.50 1021.94 1021.23 1020.44 1019.62 1018.81 1018.05 1017.33 1016.66 1016.03 1015.43 1014.84 1014.26 1013.69 1013.15 1012.65 1012.19 1011.79 1011.46 1011.20 1011.01 1010.90 1010.86 1010.89 1010.97 1011.11 1011.29 1011.48 1011.66 1011.80 1011.89 1011.91 1011.86 1011.74 1011.57 1011.38 1011.18 1011.01 1010.86 1010.74
1019.51 1020.16 1020.86 1021.56 1022.18 1022.67 1022.99 1023.09 1022.98 1022.66 1022.16 1021.54 1020.82 1020.07 1019.30 1018.55 1017.81 1017.10 1016.40 1015.72 1015.05 1014.39 1013.74 1013.13 1012.57 1012.06 1011.62 1011.27 1011.00 1010.82 1010.74 1010.75 1010.84 1011.00 1011.22 1011.47 1011.72 1011.95 1012.13 1012.23 1012.25 1012.19 1012.04 1011.84 1011.61 1011.37 1011.13 1010.92 1010.72
Thickness
5788 5788 5786 5777 5756 5736 5736 5749 5761 5768 5775 5786 5790 5785 5779 5774 5768 5765 5789 5798 5798 5795 5792 5790 5787 5784 5782 5779 5777 5775 5773 5772 5770 5768 5766 5764 5762 5760 5759 5757 5754 5753 5751 5749 5748 5747 5746 5745 5744
5786 5785 5777 5762 5739 5723 5733 5754 5761 5771 5782 5789 5788 5785 5779 5777 5784 5783 5788 5794 5795 5792 5789 5787 5784 5782 5779 5777 5774 5772 5771 5769 5767 5765 5763 5761 5759 5757 5755 5753 5751 5750 5748 5747 5745 5744 5743 5742 5741
5785 5782 5764 5746 5731 5726 5740 5759 5766 5778 5787 5786 5782 5783 5778 5775 5782 5784 5788 5792 5791 5789 5786 5784 5781 5779 5777 5775 5772 5770 5768 5766 5764 5762 5759 5758 5756 5754 5752 5750 5748 5747 5745 5744 5743 5741 5740 5739 5738
5779 5767 5755 5738 5734 5740 5750 5763 5771 5775 5782 5785 5780 5774 5778 5783 5784 5786 5789 5789 5786 5784 5783 5780 5778 5776 5774 5772 5769 5767 5765 5763 5760 5758 5756 5755 5753 5751 5749 5747 5746 5744 5742 5741 5740 5738 5737 5736 5734
5771 5755 5740 5727 5735 5747 5758 5768 5772 5771 5774 5778 5776 5768 5770 5780 5786 5787 5786 5784 5781 5779 5777 5776 5773 5771 5770 5768 5766 5764 5762 5760 5758 5755 5753 5751 5750 5748 5746 5744 5743 5742 5740 5739 5737 5736 5734 5733 5732
5754 5744 5725 5721 5734 5749 5760 5770 5772 5770 5771 5774 5771 5765 5766 5777 5779 5780 5781 5779 5777 5774 5772 5770 5769 5767 5766 5764 5762 5760 5758 5756 5755 5753 5751 5749 5747 5745 5743 5742 5741 5739 5738 5736 5735 5733 5732 5730 5729
5746 5733 5725 5729 5732 5743 5760 5770 5768 5767 5766 5769 5772 5761 5763 5770 5774 5776 5776 5774 5772 5770 5768 5766 5764 5763 5762 5760 5758 5756 5754 5753 5751 5749 5747 5745 5744 5742 5741 5740 5738 5737 5735 5733 5732 5730 5729 5728 5727
5751 5735 5728 5726 5731 5741 5760 5767 5770 5768 5765 5774 5773 5759 5757 5766 5771 5771 5769 5767 5766 5764 5762 5761 5759 5758 5757 5756 5754 5752 5750 5749 5747 5746 5744 5741 5740 5739 5738 5736 5735 5734 5732 5730 5729 5727 5726 5726 5724
5753 5727 5719 5728 5734 5745 5759 5761 5766 5772 5768 5769 5770 5767 5767 5769 5767 5763 5760 5758 5758 5758 5757 5756 5755 5754 5752 5751 5749 5748 5746 5745 5744 5742 5740 5739 5736 5735 5734 5733 5732 5731 5729 5727 5726 5724 5723 5723 5722
5741 5722 5730 5744 5749 5752 5757 5758 5761 5761 5758 5758 5760 5764 5766 5764 5761 5757 5753 5751 5751 5751 5751 5751 5750 5749 5747 5746 5745 5743 5741 5740 5739 5738 5736 5735 5733 5731 5729 5729 5728 5727 5726 5724 5723 5721 5720 5719 5718
5740 5732 5742 5751 5755 5756 5754 5756 5760 5755 5750 5755 5756 5756 5758 5757 5755 5752 5750 5749 5748 5747 5746 5746 5746 5744 5743 5742 5740 5738 5736 5735 5735 5733 5731 5730 5728 5726 5725 5724 5723 5722 5721 5720 5719 5717 5716 5715 5715
5739 5743 5748 5752 5758 5755 5752 5754 5753 5751 5753 5762 5762 5760 5755 5751 5749 5748 5747 5746 5744 5742 5742 5741 5741 5740 5739 5737 5736 5734 5732 5731 5730 5728 5726 5725 5723 5721 5720 5719 5718 5717 5716 5715 5713 5712 5712 5711 5710
5739 5744 5751 5754 5754 5753 5752 5749 5749 5749 5756 5761 5758 5754 5750 5747 5746 5745 5745 5743 5741 5739 5738 5737 5737 5736 5734 5733 5731 5730 5729 5727 5725 5724 5722 5721 5718 5716 5715 5714 5712 5711 5710 5709 5708 5707 5706 5706 5705
5744 5745 5747 5750 5751 5753 5748 5746 5745 5747 5753 5753 5750 5746 5745 5744 5743 5740 5739 5737 5737 5736 5734 5733 5732 5731 5730 5728 5727 5725 5725 5723 5721 5719 5718 5716 5714 5712 5710 5708 5707 5706 5705 5703 5702 5702 5701 5700 5700
5747 5740 5741 5745 5747 5747 5745 5736 5740 5748 5748 5744 5743 5741 5740 5739 5738 5736 5736 5734 5733 5732 5731 5729 5727 5726 5724 5723 5722 5721 5719 5718 5716 5714 5713 5711 5709 5707 5705 5703 5702 5701 5699 5698 5697 5696 5695 5694 5694
5739 5729 5724 5737 5742 5743 5736 5723 5740 5745 5742 5736 5737 5736 5734 5733 5734 5733 5732 5731 5730 5728 5725 5723 5723 5720 5718 5717 5715 5715 5714 5713 5712 5710 5708 5706 5704 5702 5699 5698 5697 5695 5694 5692 5691 5690 5688 5687 5687
5722 5714 5717 5728 5738 5737 5730 5723 5734 5740 5738 5733 5732 5731 5729 5728 5728 5729 5728 5727 5724 5723 5721 5718 5716 5714 5712 5711 5709 5709 5708 5707 5706 5704 5703 5701 5699 5697 5695 5693 5692 5690 5688 5686 5685 5684 5682 5680 5680
5715 5716 5718 5720 5731 5731 5723 5720 5728 5734 5732 5729 5728 5726 5725 5723 5724 5725 5724 5722 5720 5718 5716 5713 5711 5709 5707 5705 5702 5702 5702 5701 5700 5698 5697 5696 5694 5692 5689 5687 5686 5684 5681 5680 5678 5677 5675 5674 5673
5728 5721 5716 5724 5733 5726 5718 5716 5721 5727 5725 5722 5721 5720 5720 5721 5723 5722 5720 5719 5715 5713 5710 5708 5705 5704 5702 5699 5696 5695 5694 5693 5693 5692 5691 5690 5688 5685 5683 5681 5679 5677 5675 5673 5672 5671 5669 5668 5667
5727 5719 5717 5724 5732 5724 5713 5712 5718 5721 5720 5720 5718 5717 5717 5717 5717 5716 5715 5713 5710 5708 5706 5703 5701 5698 5697 5694 5692 5690 5688 5687 5686 5686 5685 5683 5681 5679 5678 5675 5673 5671 5669 5667 5666 5665 5663 5662 5660
5725 5720 5721 5720 5723 5721 5712 5706 5711 5716 5718 5717 5717 5717 5716 5716 5713 5713 5711 5708 5705 5702 5701 5700 5696 5694 5692 5690 5687 5685 5682 5681 5680 5679 5678 5677 5675 5674 5672 5670 5668 5665 5663 5662 5661 5660 5657 5656 5655
5721 5734 5730 5724 5710 5700 5706 5686 5701 5706 5707 5710 5711 5712 5712 5712 5712 5709 5707 5704 5701 5699 5698 5695 5692 5690 5687 5685 5682 5679 5676 5673 5674 5673 5671 5671 5670 5668 5667 5665 5662 5660 5658 5656 5655 5655 5653 5651 5649
5733 5739 5731 5722 5709 5698 5698 5688 5692 5701 5699 5703 5707 5710 5710 5710 5708 5706 5704 5701 5699 5697 5694 5691 5688 5685 5683 5681 5677 5674 5671 5670 5670 5668 5667 5666 5665 5664 5662 5660 5658 5655 5654 5652 5651 5650 5649 5647 5645
5742 5730 5720 5707 5698 5686 5694 5687 5686 5693 5699 5703 5706 5707 5707 5706 5705 5702 5700 5697 5695 5693 5690 5687 5684 5680 5678 5676 5673 5670 5669 5667 5665 5663 5661 5661 5660 5659 5657 5655 5653 5651 5650 5648 5646 5645 5644 5642 5641
5732 5711 5690 5686 5677 5680 5693 5687 5687 5703 5707 5706 5705 5704 5704 5702 5700 5697 5694 5692 5689 5687 5685 5682 5678 5675 5674 5671 5669 5667 5666 5664 5662 5660 5657 5655 5654 5653 5652 5650 5648 5646 5646 5644 5642 5640 5640 5638 5637
5724 5712 5688 5677 5672 5677 5688 5683 5693 5706 5707 5707 5705 5702 5700 5697 5695 5692 5690 5688 5685 5682 5680 5676 5673 5671 5669 5668 5666 5664 5662 5661 5659 5657 5654 5652 5650 5649 5648 5645 5643 5642 5640 5639 5637 5635 5634 5633 5631
5720 5709 5707 5686 5680 5671 5677 5686 5697 5703 5701 5700 5698 5697 5694 5692 5690 5688 5686 5684 5681 5678 5675 5672 5669 5667 5666 5665 5663 5661 5659 5658 5656 5654 5651 5648 5647 5645 5643 5641 5639 5637 5635 5633 5632 5630 5629 5627 5626
5728 5712 5694 5682 5669 5664 5673 5677 5679 5691 5693 5694 5692 5690 5689 5688 5686 5684 5681 5680 5677 5674 5672 5669 5667 5664 5663 5662 5660 5660 5658 5656 5653 5650 5648 5645 5643 5640 5638 5636 5635 5632 5630 5628 5627 5625 5623 5622 5620
5718 5707 5690 5676 5674 5663 5659 5671 5695 5694 5694 5691 5690 5689 5687 5684 5682 5680 5678 5676 5673 5670 5668 5665 5664 5661 5660 5659 5658 5656 5654 5652 5650 5647 5644 5641 5639 5636 5634 5632 5630 5627 5625 5622 5621 5619 5617 5616 5614
5722 5710 5694 5681 5672 5665 5659 5670 5702 5699 5696 5692 5688 5687 5685 5682 5679 5676 5674 5671 5669 5666 5664 5662 5660 5658 5657 5656 5654 5652 5650 5648 5646 5643 5640 5638 5635 5632 5630 5628 5625 5622 5619 5617 5615 5613 5612 5609 5607